Tracking 28052 objects as of 22-Sep-2023
HD Live streaming from Space Station
objects crossing your sky now

DELTA 1 DEB

Track DELTA 1 DEB now!
10-day predictions


NORAD ID: 10663
Int'l Code: 1976-077Z
Perigee: 861.5 km
Apogee: 1,070.7 km
Inclination: 100.6 °
Period: 104.2 minutes
Semi major axis: 7337 km
RCS: 0.0545 m2 (small)
Launch date: July 29, 1976
Source: United States (US)
Launch site: AIR FORCE WESTERN TEST RANGE (AFWTR)

Note: This is SATELLITE DEBRIS
Your satellite tracking list
Your tracking list is empty




NASA's NSSDC Master Catalog

Two Line Element Set (TLE):
1 10663U 76077Z   23263.85741158  .00006289  00000-0  55181-2 0  9995
2 10663 100.5925 126.4419 0142574 260.9324  97.5668 13.81400376291552
Source of the keplerian elements: AFSPC